Regional Weather Roundup
Issued by NWS Sterling, VA

Home | Current Version | Previous Version | Text Only | Print | Product List | Glossary On
Versions: 1 2 3 4 5 6 7 8 9 10 11 12 13 14 15 16 17 18 19 20 21 22 23 24 25 26 27 28 29 30 31 32 33 34 35 36 37 38 39 40 41 42 43 44 45 46 47 48 49 50
000
ASUS41 KLWX 240610
RWRLWX

REGIONAL WEATHER ROUNDUP
NATIONAL WEATHER SERVICE BALTIMORE MD/WASHINGTON DC
200 AM EDT THU JUL 24 2014

Note: "FAIR" indicates few or no clouds below 12,000 feet
with no significant weather and/or obstructions to visibility.
 TC=TEMPERATURE CELSIUS

 * =Non NWS site. Station does not report precipitation (e.g. rain,
    snow, etc.), thunder, or fog.

DCZ001-MDZ009-015-VAZ040>042-051-053>054-240700-
WASHINGTON METRO
  /KDAA//-FT BELVOIR

CITY           SKY/WX    TMP DP  RH WIND       PRES   REMARKS
WASHINGTON NAT MOCLDY    79  69  71 N7        29.87R
DULLES         CLOUDY    76  68  76 NW7       29.87S
ANDREWS AFB    MOCLDY    76  70  82 NW3       29.86S
QUANTICO       CLOUDY    75  70  84 NW5       29.86S
COLLEGE PARK*  MOCLDY    75  72  88 CALM      29.86S
LEESBURG*      CLOUDY    75  73  94 N6        29.89S
MANASSAS*      CLOUDY    73  73 100 CALM      29.87S
GAITHERSBURG*  CLOUDY    70  68  94 CALM      29.92S

$$

MDZ006>007-011-014-240700-
BALTIMORE METRO

CITY           SKY/WX    TMP DP  RH WIND       PRES   REMARKS
BWI AIRPORT    MOCLDY    73  72  96 CALM      29.85S
MD SCIENCE CTR   N/A     76  71  85 MISG      29.85S
MARTIN STATE   CLEAR     72  72 100 CALM      29.86S
ANNAPOLIS      PTCLDY    77  72  84 NW3       29.84S
FORT MEADE*    PTCLDY    70  68  94 CALM      29.88S

$$

MDZ012-015-019>023-240700-
MARYLAND EASTERN SHORE

CITY           SKY/WX    TMP DP  RH WIND       PRES   REMARKS
OCEAN CITY     CLOUDY    75  72  90 CALM      29.83F
SALISBURY      NOT AVBL
BAY BRIDGE AP*   N/A     75  72  88 CALM      29.84F
CAMBRIDGE*     PTCLDY    73  70  88 CALM      29.83F
EASTON*        PTCLDY    74  74 100 CALM      29.87F

$$

MDZ017>025-240700-
SOUTHERN MARYLAND

CITY           SKY/WX    TMP DP  RH WIND       PRES   REMARKS
PATUXENT RIVER MOCLDY    75  71  87 SW6       29.83F
ST INIGOES     MOCLDY    75  69  81 CALM      29.84F
LEONARDTOWN*   MOCLDY    73  70  88 W3        29.86F

$$

MDZ003>005-240700-
NORTH CENTRAL MARYLAND

CITY           SKY/WX    TMP DP  RH WIND       PRES   REMARKS
FREDERICK*     CLOUDY    70  70 100 CALM      29.90F FOG
HAGERSTOWN APT CLOUDY    74  66  76 CALM      29.90S
WESTMINSTER*   CLOUDY    73  70  88 CALM      29.89S

$$

MDZ501>502-240700-
WESTERN MARYLAND

CITY           SKY/WX    TMP DP  RH WIND       PRES   REMARKS
OAKLAND*       FOG       61 N/A N/A NW6       30.04S VSB 3/4
CUMBERLAND*    CLOUDY    72  63  73 NW6       29.98R

$$

VAZ025>031-240700-
SHENANDOAH VALLEY

CITY           SKY/WX    TMP DP  RH WIND       PRES   REMARKS
WINCHESTER*    NOT AVBL
STAUNTON*      NOT AVBL

$$

WVZ021-048>050-054>055-240700-
EASTERN WEST VIRGINIA PANHANDLE

CITY           SKY/WX    TMP DP  RH WIND       PRES   REMARKS
MARTINSBURG    CLOUDY    76  64  66 NW9       29.91F
PETERSBURG*    NOT AVBL

$$

VAZ036>039-050-240700-
CENTRAL FOOTHILLS

CITY           SKY/WX    TMP DP  RH WIND       PRES   REMARKS
CHARLOTTESVILL CLOUDY    72  71  97 W3        29.90F FOG
ORANGE*        NOT AVBL

$$

VAZ055>057-240700-
NORTH AND CENTRAL PIEDMONT

CITY           SKY/WX    TMP DP  RH WIND       PRES   REMARKS
FREDERICKSBRG* CLOUDY    76  72  85 CALM      29.86S
STAFFORD*      NOT AVBL

$$

NCZ024-NYZ072-PAZ021-071-VAZ022-071-240700-
OTHER REGIONAL OBSERVATIONS

CITY           SKY/WX    TMP DP  RH WIND       PRES   REMARKS
NEW YORK CITY  MOCLDY    74  68  81 CALM      29.83S
PHILADELPHIA   CLOUDY    75  67  76 N3        29.86R
PITTSBURGH     MOCLDY    64  59  83 NW9       30.00F
ROANOKE        CLOUDY    79  66  65 N7        29.97R
RICHMOND       CLOUDY    81  69  67 N3        29.86F
RALEIGH        PTCLDY    76  71  85 SW8       29.92F

$$

ANZ530>537-240700-
MARINE OBSERVATIONS

STATION/POSITION TIME  TEMP    WIND        PRES
                       AIR SEA DIR/SP/G
                 (UTC) (F)     (DEG/KT/KT) (MB)
THOMAS PT LIGHT  0500   77 79  220/  2/  2 1011.2S
BALT KEY BRIDGE  0500   77     270/  7/  7 1010.6F
COVE POINT       0500   76     280/  6/  9 1010.4R
LEWISETTA        0500   78 80  280/  3/  3 1010.6F
SOLOMONS ISLAND  0500      82                N/A
PINEY POINT      0500          300/  3/  4   N/A

$$




USA.gov is the U.S. government's official web portal to all federal, state and local government web resources and services.